Weather Roundup
Issued by NWS Corpus Christi, TX

Home | Current Version | Previous Version | Text Only | Print | Product List | Glossary On
Versions: 1 2 3 4 5 6 7 8 9 10 11 12 13 14 15 16 17 18 19 20 21 22 23 24 25 26 27 28 29 30 31 32 33 34 35 36 37 38 39 40 41 42 43 44 45 46 47 48 49 50
000
ASUS44 KCRP 180210
HRRCRP

SOUTH TEXAS REGIONAL WEATHER ROUNDUP
NATIONAL WEATHER SERVICE CORPUS CHRISTI TX
800 PM CST TUE JAN 17 2017


TXZ229>244-180300-
...CORPUS CHRISTI AREA OBSERVATIONS...

CITY           SKY/WX    TMP DP  RH WIND       PRES   REMARKS
CORPUS CHRISTI CLOUDY    74  71  91 SE17      29.98R
NAS CORPUS CHR MOCLDY    71  70  96 SE13      29.98R
ROCKPORT       CLOUDY    71  69  93 SE9       29.98S
KINGSVILLE NAS CLOUDY    73  73 100 SE13      29.97R
ALICE          CLOUDY    73  70  90 SE13      29.97R
ORANGE GROVE   NOT AVBL
FALFURRIAS     CLOUDY    74  70  88 SE9       29.94R
$$

...VICTORIA AREA OBSERVATIONS...

CITY           SKY/WX    TMP DP  RH WIND       PRES   REMARKS
VICTORIA       CLOUDY    61  60  97 N8        30.02R FOG
BEEVILLE       RAIN      52  52 100 N8        29.99R
PLEASANTON     LGT RAIN  52  51  97 NE12      30.04R
SAN ANTONIO    CLOUDY    51  49  92 N12       30.05S
$$

...LAREDO AREA OBSERVATIONS...

CITY           SKY/WX    TMP DP  RH WIND       PRES   REMARKS
LAREDO         NOT AVBL
COTULLA        CLOUDY    59  52  77 NE9       30.03R
DEL RIO        CLOUDY    49  48  97 W12       30.11R
MCALLEN        PTCLDY    77  70  79 SE13      29.95R
HEBBRONVILLE   CLOUDY    63  61  93 N9        29.97R
$$

...OTHER TEXAS OBSERVATIONS...

CITY           SKY/WX    TMP DP  RH WIND       PRES   REMARKS
BROWNSVILLE    CLOUDY    73  71  93 SE9       29.97R
HOUSTON        FOG       59  58  96 N8        30.07R VSB 1
COL. STATION   CLOUDY    54  53  97 NE10      30.06S
AUSTIN         TSTM      51  49  92 N13       30.08F FOG
WACO           CLOUDY    48  45  89 N12       30.15R
FORT WORTH     LGT RAIN  48  45  89 NW9       30.16S
WICHITA FALLS  LGT RAIN  45  43  93 CALM      30.18S
LUBBOCK        LGT RAIN  42  40  92 SE8       30.14R
EL PASO        PTCLDY    45  39  79 N6        30.11R
$$

...MARINE OBSERVATIONS...

STATION/POSITION TIME  SKY/WX   TEMP    WIND        PRES    VSBY  WAVE   SWELL
                                AIR SEA DIR/SP/G                  HT/PER HT/PER
                 (UTC)          (F)     (DEG/KT/KT) (MB)    (MI)  (FT/S) (FT/S)
PORT ARANSAS     0100            68 64  100/ 12/ 13 1014.3S
BUOY 90 E PORT A 0050            74 73  110/ 14/ 16 1015.8          4/ 7   3/ 7
BUOY 45 SE BAFFI 0050            72     130/ 10/ 12 1014.1          4/ 8   3/ 8
BUOY 200 E PT IS 0050            75 75  120/ 14/ 16 1016.5          5/ 7   3/ 7
BUOY 15 E GALVES 0050            68 64  100/  8/  8 1017.2          3/ 7   3/ 7
$$



USA.gov is the U.S. government's official web portal to all federal, state and local government web resources and services.